This is the latest recevied weather packets stored in our database for station/object K1BES. If no packets are shown the sender has not sent any weather packets the latest 10 day(s).
| Time | Temp. | Humidity | Pressure | Rain* | Wind** | Luminosity | Snow |
|---|---|---|---|---|---|---|---|
| 1777895319 | 19.44° C | 85% | 1017.8 hPa | 0 mm | - | 50 W/m² | - |
| 1777895017 | 19.44° C | 85% | 1017.7 hPa | 0 mm | - | 41 W/m² | - |
| 1777894714 | 19.44° C | 86% | 1017.6 hPa | 0 mm | - | 37 W/m² | - |
| 1777894410 | 19.44° C | 86% | 1017.7 hPa | 0 mm | - | 32 W/m² | - |
| 1777894108 | 19.44° C | 86% | 1017.8 hPa | 0 mm | - | 28 W/m² | - |
| 1777893805 | 19.44° C | 86% | 1017.7 hPa | 0 mm | - | 26 W/m² | - |
| 1777893501 | 18.89° C | 87% | 1017.6 hPa | 0 mm | - | 24 W/m² | - |
| 1777893197 | 18.89° C | 87% | 1017.6 hPa | 0 mm | - | 18 W/m² | - |
| 1777892894 | 18.89° C | 87% | 1017.3 hPa | 0 mm | - | 13 W/m² | - |
| 1777892590 | 18.89° C | 87% | 1017.2 hPa | 0 mm | - | 10 W/m² | - |
| 1777892286 | 18.89° C | 88% | 1017.1 hPa | 0 mm | - | 7 W/m² | - |
| 1777891982 | 18.89° C | 88% | 1017.1 hPa | 0 mm | - | 4 W/m² | - |
| 1777891681 | 18.89° C | 88% | 1017.2 hPa | 0 mm | - | 2 W/m² | - |
| 1777891376 | 18.89° C | 88% | 1017.3 hPa | 0 mm | - | 1 W/m² | - |
| 1777891072 | 18.89° C | 88% | 1016.9 hPa | 0 mm | - | 0 W/m² | - |
| 1777890767 | 18.89° C | 88% | 1016.7 hPa | 0 mm | - | 0 W/m² | - |
| 1777890463 | 18.89° C | 88% | 1016.7 hPa | 0 mm | - | 0 W/m² | - |
| 1777890159 | 18.89° C | 88% | 1017.1 hPa | 0 mm | - | 0 W/m² | - |
| 1777889856 | 18.89° C | 88% | 1016.8 hPa | 0 mm | - | 0 W/m² | - |
| 1777889553 | 18.89° C | 88% | 1017.1 hPa | 0 mm | - | 0 W/m² | - |
| 1777889251 | 18.89° C | 88% | 1016.9 hPa | 0 mm | - | 0 W/m² | - |
| 1777888948 | 18.89° C | 88% | 1016.7 hPa | 0 mm | - | 0 W/m² | - |
| 1777888645 | 18.89° C | 87% | 1016.6 hPa | 0 mm | - | 0 W/m² | - |
| 1777888341 | 18.89° C | 87% | 1016.6 hPa | 0 mm | - | 0 W/m² | - |
| 1777888038 | 18.89° C | 88% | 1016.5 hPa | 0 mm | - | 0 W/m² | - |
* Rain latest hour (hover to see other rain measurements)
** Current wind speed in m/s (hover to see current wind gust speed)